Погода в Кандыагаше

Казахстан     49°28′20″N   57°25′26″E
темп.,
°C
ветер,
м/с
пор.,
м/с
влажн.,
%
обл.,
%
осадки,
мм/ч
давл.,
гПа
погр.,
м
2 марта, вт
вт223:00−17з499889 0.1 1023147
02:00−19з479977 0.0 102391
05:00−20з4710086 0.1 102497
08:00−21зюз47100100 0.0 1024115
11:00−18з5897100 0.1 1024253
14:00−15зюз589499 0.0 1023287
17:00−13юз6119290 0.0 1022354
20:00−14юз5129787 0.0 1020242
3 марта, ср
ср323:00−9юз7159694 0.1 1019394
02:00−9юз6149391 0.0 1016336
05:00−4юз9159495 0.1 1014704
08:00−4юз91593100 0.3 1012773
11:00−3юз101694100 0.6 1012810
14:00−1юз111696100 1.0 1010949
17:00−1юз101596100 2.1 1009987
20:00−1юз91496100 1.1 1008790
4 марта, чт
чт423:00−2юз71396100 1.8 1008621
02:00−2юз81396100 0.5 1007631
05:00−3з71295100 1.1 1008556
08:00−6з6119599 0.2 1010345
11:00−9зсз7119498 0.2 1014386
14:00−7з71191100 0.0 1015581
17:00−7з71191100 0.1 1017582
20:00−11зюз6129697 0.0 1019267
5 марта, пт
пт523:00−10юз6149686 0.1 1021328
02:00−9юз8179177 0.0 1020370
05:00−8юз8178651 0.0 1020440
08:00−7юз9178723 0.0 1020425
11:00−5юз10188312 0.0 1020573
14:00−3юз1117800 0.0 1020789
17:00−3юз9168017 0.0 1019665
20:00−5юз8168647 0.0 1019416
6 марта, сб
сб623:00−5юз7158624 0.0 1020334
02:00−5юз6149239 0.0 1019287
05:00−5юз599664 0.1 1019260
08:00−4ююз589699 0.1 1019214
11:00−2ююз689699 0.2 1019261
14:00−1юз7129897 0.3 1018502
17:000юз7129298 0.3 1017487
20:00−2ююз7139667 0.0 1016398